User: anonymous   Login
Location: Gajan
(43.0218°N, 1.1244°E)
Time: 19:49:23
(UTC+00:00)
Language:

Lacrosse 5 rocket - Orbit

View from above orbital plane
View from above orbital plane
View from above satellite
View from above satellite

Ground track
Ground track

The orbit data is extracted from the following two-line orbital elements,

1 28647U 05016B   21172.30760982  .00000142  00000-0  26289-4 0  9995
2 28647  56.9949 179.9898 0128742  89.1719 272.4068 15.06433616115530
Epoch (UTC): 21 June 2021 07:22:57
Eccentricity: 0.0128742
inclination: 56.9949°
perigee height: 458 km
apogee height: 636 km
right ascension of ascending node: 179.9898°
argument of perigee: 89.1719°
revolutions per day: 15.06433616
mean anomaly at epoch: 272.4068°
orbit number at epoch: 11553

The dashed part of the orbit path shows where the satellite is in the earth's shadow,  

DLR